Miscellaneous Local Product
Issued by NWS North Platte, NE

Home | Current Version | Previous Version | Graphics & Text | Print | Product List | Glossary On
Versions: 1 2 3 4 5 6 7 8 9 10 11 12 13 14 15 16 17 18 19 20 21 22 23 24 25 26 27 28 29 30 31 32 33 34 35 36 37 38 39 40 41 42 43 44 45 46 47 48 49 50
000
AXUS43 KLBF 300510
MISLBF


WESTERN AND NORTH CENTRAL NEBRASKA HOURLY WEATHER ROUNDUP
NATIONAL WEATHER SERVICE NORTH PLATTE NE
1200 AM CDT THU MAR 30 2017

NOTE: "FAIR" INDICATES FEW OR NO CLOUDS BELOW 12,000 FEET WITH NO
SIGNIFICANT WEATHER AND/OR OBSTRUCTIONS TO VISIBILITY.

NOTE: STATIONS NOT REPORTING VARIABLES SUCH AS SKY/WEATHER OR
PRESSURE ARE PROVIDED BY RAWS AND APRS NETWORKS AND ARE NOT UNDER
NATIONAL WEATHER SERVICE QUALITY CONTROL.

...OBSERVATIONS IN AND NEAR THE EASTERN PANHANDLE OF NEBRASKA...

CITY           SKY/WX    TMP DP  RH WIND       PRES   REMARKS
PINE RIDGE     CLEAR     42  38  85 E5        29.93F
CHADRON        CLEAR     41  35  79 CALM      29.92F
ALLIANCE       CLEAR     29  28  96 W6        29.93F WCI  23
SIDNEY         CLEAR     32  31  96 W5        29.95F WCI  27
CRESCENT LAKE    N/A     38  37  95 CALM        N/A
$$

...OBSERVATIONS IN NORTHERN NEBRASKA AND FAR SOUTHERN SOUTH DAKOTA...

CITY           SKY/WX    TMP DP  RH WIND       PRES   REMARKS
WINNER         CLOUDY    41  37  86 E9        29.97F
VALENTINE      CLOUDY    42  34  73 E7        29.95F
THEDFORD       CLOUDY    41  36  83 NE9       29.93F
AINSWORTH      CLOUDY    38  37  95 NE14      29.94F WCI  30
O`NEILL        CLOUDY    38  37  97 NE10      29.93F WCI  31
ORD            CLOUDY    38  34  85 N14       29.88F WCI  30
BROKEN BOW     CLOUDY    39  36  89 N15       29.88F WCI  31
VALENTINE NWR    N/A     40  34  80 E7G15       N/A
HALSEY           N/A     39  36  89 N6G13       N/A  WCI  35
BUTTE            N/A     36  34  94 NE10        N/A  WCI  28
CHAMBERS         N/A     37  36  95 N3          N/A
EWING            N/A     37  36  95 NE6         N/A  WCI  32
$$

...OBSERVATIONS IN SOUTHWEST NEBRASKA AND FAR NORTHEAST COLORADO...

CITY           SKY/WX    TMP DP  RH WIND       PRES   REMARKS
WRAY           FAIR      34  34 100 NW7       29.94  WCI  28
HOLYOKE        FAIR      37  36  93 NW6       29.94F WCI  33
IMPERIAL       CLEAR     38  35  89 NW12      29.92F WCI  30
OGALLALA       CLEAR     38  37  93 CALM      29.92F
NORTH PLATTE   CLOUDY    41  34  76 N15       29.91F
MCCOOK         CLOUDY    41  38  89 N14       29.88F
LEXINGTON      CLOUDY    39  37  90 N18       29.86F WCI  30
STAPLETON        N/A     38  35  88 CALM        N/A
GOTHENBURG       N/A     40  35  82 N8          N/A  WCI  34
CALLAWAY         N/A     38  36  92 NE16        N/A  WCI  29
$$

...OBSERVATIONS IN CENTRAL LINCOLN COUNTY AREA...

CITY           SKY/WX    TMP DP  RH WIND       PRES   REMARKS
N.P. AIRPORT   CLOUDY    41  34  76 N15       29.91F
N.P. DOWNTOWN    N/A     40  36  86 N9G17       N/A  WCI  34
N.P. SOUTHEAST   N/A     40  35  84 N7G17       N/A
N.P. HILLCREST   N/A     40  37  88 NE14        N/A  WCI  32
$$

...SOME OBSERVATIONS FROM AROUND THE REGION...

CITY           SKY/WX    TMP DP  RH WIND       PRES   REMARKS
DENVER         PTCLDY    34  30  85 S10       29.97S WCI  26
LIMON          CLEAR     28  28 100 NW5       29.97F WCI  23
ASPEN          CLOUDY    33  24  69 S8        30.10S WCI  26
LARAMIE        CLEAR     29  24  82 SE7       29.98S WCI  22
CASPER         CLEAR     41  29  62 SW5       29.87F
CHEYENNE       CLEAR     37  29  72 S7        29.97S WCI  32
SCOTTSBLUFF    CLEAR     36  33  89 E5        29.94F WCI  32
GRAND ISLAND   LGT RAIN  37  37 100 N15       29.83F FOG     WCI  28
OMAHA          LGT RAIN  43  38  82 N15G25    29.74F
SIOUX FALLS    LGT RAIN  39  39 100 NE13      29.97F WCI  31
PIERRE         CLEAR     38  33  82 SE10      29.98S WCI  31
RAPID CITY     CLEAR     37  35  92 CALM      29.92F
BISMARCK       CLOUDY    51  35  54 S22G30    29.93R
KANSAS CITY    CLOUDY    53  53 100 NE12      29.62F FOG
HILL CITY      CLOUDY    41  39  93 N22G30    29.82F
WICHITA        DRIZZLE   44  44 100 NW16      29.64F
DODGE CITY     CLOUDY    39  37  92 NW15G24   29.81F WCI  31
OKLAHOMA CITY  CLOUDY    48  40  73 W12       29.79F
DALLAS         PTCLDY    59  48  67 W15       29.84S
AMARILLO       CLOUDY    42  38  85 W12       29.95F
$$




USA.gov is the U.S. government's official web portal to all federal, state and local government web resources and services.